Showing default

YAOGAN-43 02B, 60946

Orbit data source: Space-Track

YAOGAN-43 02B, 60946 is a payload satellite owned by PLA GAD (CN) in LEO that was launched on Tue, 03 Sep 2024 UTC via a CHANG ZHENG 4B launch vehicle from the Xichang Space Center, China (XSC). Payload-class satellites include a variety of spacecraft equipped with specific instruments for various scientific and technological missions. These include communications satellites like Starlink; space stations such as the ISS; scientific satellites like the Hubble; Earth observation satellites from companies like Planet Labs, Umbra, and HawkEye 360; GPS; miniature CubeSats for education and research; and military/defense satellites.

Loading next visibility...
Identifier
60946, 2024-156B
Orbit
LEO
Country
Flag of CNCN / PRC
Related business
Manufacturer
SAST
Mission
Operational Defense Communications
Bus & Motor
Unknown
Mass
~300 kg wet, ~300 kg dry
Launch date (UTC)
2024-09-03 (2 years ago)
Launch vehicle
CHANG ZHENG 4B
Launch site
Xichang Space Center, China (XSC)
Object type
Payload
Rocket body
Debris
Shape & HBR
Box + 2 Pan, 2.5 m
Radar Cross Section
11.063 m², Large (>1 m²)

Expand to show TLE details & history
Last TLE update: 16 hours ago

TLE from 16 hours ago
0 YAOGAN-43 02B
1 60946U 24156B   26126.36135631  .00009277  00000-0  38537-3 0  9992
2 60946  34.9935 101.0818 0001806 173.7450 186.3288 15.23066840 93060
Epoch: 2026-05-06T08:40Z
TLE epoch observation values (Epoch: 2026-05-06T08:40:21.185Z)
Latitude
0.00003°
Longitude
106.77062°
Altitude
496.737 km
Speed
7.618 km/s
True Right ascension
06h 44m 19s
True Declination
0° 00' 00"
Sunlit
Object was in daylight at epoch
Visualization orbit readout
Latitude
Unknown
Longitude
Unknown
Altitude
Unknown
Speed
Unknown
Apparent Right ascension
Unknown
Apparent Declination
Unknown
Sunlit
N/A
Visualization observer readout
Local Sidereal Time
09:09:28
Azimuth
Unknown
Elevation
Unknown
Doppler factor
Unknown
Orbital elements
Apogee altitude
501.09 km
Perigee altitude
498.606 km
Semi-major axis
6,877.985 km
Eccentricity
0.00018
Inclination
34.9935°
RAAN
101.0818°
Arg. of periapsis
173.745°
True anomaly
186.32652°
Mean anomaly
186.3288°
Eccentric anomaly
186.32766°
Mean motion
3.80497 °/min
Orbital period
94.61 mins
BSTAR
0.00038537
Loading maneuver chart data...
Computing Atmospheric mass density...
Loading historical data...
Loading historical data...
Loading historical data...
Loading historical data...
Loading historical data...
Loading historical data...
Loading historical data...

Documentation

Showing up to 5 results
|